20050624,2522
20050627,2601
20050628,2679
20050629,2783
20050630,2838
20050701,2885
20050704,2981
20050705,3007
20050706,3040
20050707,3050
20050708,3095
20050711,3145
20050712,3159
20050713,3194
20050714,3235
20050715,3297
20050719,3347
20050720,3408
20050721,3423
20050722,3587
20050725,3722
20050726,3823
20050727,3888
20050728,3974
20050729,4065
20050801,4136
20050802,4192
20050803,4213
20050804,4372
20050805,4362
20050808,4425
20050809,4488
20050810,4621
20050811,4747
20050812,4789
20050815,4941
20050816,5017
20050817,5051
20050818,5153
20050819,5185
20050822,5319
20050823,5368
20050824,5415
20050825,5448
20050826,5597
20050829,5635
20050830,5783
20050831,5886
20050901,6006
20050902,6130
20050905,6181
20050906,6194
20050907,6242
20050908,6227
20050909,6353
20050912,6409
20050913,6459
20050914,6450
20050915,6571
20050916,6577
20050920,6744
20050921,6781
20050922,6860
20050926,7000
20050927,6988
20050928,7143
20050929,7302
20050930,7279
20051003,7251
20051004,7314
20051005,7308
20051006,7161
20051007,7192
20051011,7423
20051012,7442
20051013,7447
20051014,7370
20051017,7360
20051018,7363
20051019,7322
20051020,7325
20051021,7318
20051024,7280
20051025,7451
20051026,7532
20051027,7630
20051028,7653
20051031,7827
20051101,7929
20051102,7970
20051104,8027
20051107,8054
20051108,8079
20051109,8050
20051110,8042
20051111,8097
20051114,8047
20051115,8031
20051116,8100
20051117,8202
20051118,8316
20051121,8074
20051122,8083
20051124,8090
20051125,8226
20051128,8363
20051129,8419
20051130,8405
20051201,8518
20051202,8643
20051205,8706
20051206,8673
20051207,8740
20051208,8615
20051209,8718
20051212,8881
20051213,8982
20051214,8897
20051215,8838
20051216,8834
20051219,8882
20051220,9017
20051221,9046
20051222,9052
20051226,9090
20051227,9036
20051228,9151
20051229,9188
20051230,9163
20060104,9306
20060105,9414
20060106,9468
20060110,8924
20060111,8999
20060112,9119
20060113,9134
20060116,9154
20060117,9037
20060118,8739
20060119,8946
20060120,9032
20060123,8911
20060124,9120
20060125,9162
20060126,9310
20060127,9503
20060130,9666
20060131,9719
20060201,9649
20060202,9787
20060203,9814
20060206,9899
20060207,9973
20060208,9846
20060209,9920
20060210,9843
20060213,9654
20060214,9717
20060215,9729
20060216,9732
20060217,9654
20060220,9493
20060221,9699
20060222,9663
20060223,9894
20060224,9898
20060227,9931
20060228,9999
20060301,9910
20060302,9902
20060303,9874
20060306,9963
20060307,9935
20060308,9830
20060309,10000
20060310,10034
20060313,10200
20060314,10172
20060315,10203
20060316,10121
20060317,10202
20060320,10319
20060322,10354
20060323,10304
20060324,10349
20060327,10315
20060328,10382
20060329,10502
20060330,10571
20060331,10558
20060403,10634
20060404,10693
20060405,10628
20060406,10801
20060407,10880
20060410,10548
20060411,10554
20060412,10466
20060413,10523
20060414,10581
20060417,10484
20060418,10608
20060419,10694
20060420,10817
20060421,10897
20060424,10725
20060425,10810
20060426,10946
20060427,11054
20060428,11106
20060501,11348
20060502,11507
20060508,11727
20060509,11712
20060510,11682
20060511,11715
20060512,11634
20060515,11653
20060516,11487
20060517,11708
20060518,11698
20060519,11889
20060522,11892
20060523,11798
20060524,12005
20060525,12005
20060526,12330
20060529,12458
20060530,12572
20060531,12752
20060601,13048
20060602,13218
20060605,13183
20060606,13052
20060607,12953
20060608,12681
20060609,12831
20060612,13000
20060613,12707
20060614,12938
20060615,13227
20060616,13709
20060619,13819
20060620,13769
20060621,13776
20060622,14208
20060623,14119
20060626,14179
20060627,14209
20060628,14069
20060629,14283
20060630,14596
20060703,14664
20060704,14730
20060705,14589
20060706,14507
20060707,14560
20060710,14446
20060711,14399
20060712,14303
20060713,14102
20060714,13807
20060718,13503
20060719,13509
20060720,13885
20060721,13744
20060724,13719
20060725,13879
20060726,13755
20060727,14020
20060728,14225
20060731,14444
20060801,14598
20060802,14723
20060803,14745
20060804,14778
20060807,14586
20060808,14867
20060809,15044
20060810,15172
20060811,15198
20060814,15402
20060815,15408
20060816,15612
20060817,15628
20060818,15665
20060821,15514
20060822,15615
20060823,15609
20060824,15494
20060825,15528
20060828,15432
20060829,15574
20060830,15626
20060831,15858
20060901,15937
20060904,16130
20060905,16128
20060906,16077
20060907,15802
20060908,15951
20060911,15827
20060912,15824
20060913,15799
20060914,16001
20060915,15997
20060919,16089
20060920,15924
20060921,16052
20060922,15965
20060925,16029
20060926,16032
20060927,16427
20060928,16588
20060929,16743
20061002,16991
20061003,16942
20061004,16791
20061005,17135
20061006,17200
20061010,16849
20061011,16798
20061012,16758
20061013,16975
20061016,17255
20061017,17243
20061018,17309
20061019,17322
20061020,17429
20061023,17598
20061024,17635
20061025,17669
20061026,17856
20061027,17855
20061030,17672
20061031,17838
20061101,18049
20061102,18068
20061106,18138
20061107,18191
20061108,18081
20061109,18068
20061110,18058
20061113,18019
20061114,18265
20061115,18237
20061116,18242
20061117,18213
20061120,17889
20061121,17964
20061122,18208
20061124,18088
20061127,18280
20061128,18329
20061129,18671
20061130,18920
20061201,19083
20061204,19223
20061205,19247
20061206,19553
20061207,19686
20061208,19619
20061211,19997
20061212,20126
20061213,20243
20061214,20449
20061215,20601
20061218,20792
20061219,20705
20061220,21060
20061221,21286
20061222,21332
20061225,21413
20061226,21655
20061227,21865
20061228,22103
20061229,22319
20070104,22508
20070105,22356
20070109,22678
20070110,21744
20070111,21978
20070112,22421
20070115,22750
20070116,22774
20070117,22824
20070118,23076
20070119,23134
20070122,23371
20070123,23441
20070124,23708
20070125,23645
20070126,23818
20070129,24101
20070130,24130
20070131,24126
20070201,24483
20070202,24613
20070205,24143
20070206,24521
20070207,24515
20070208,24461
20070209,24787
20070213,24968
20070214,25083
20070215,25253
20070216,25243
20070219,25338
20070220,25465
20070221,25514
20070222,25746
20070223,26025
20070226,26152
20070227,26171
20070228,25487
20070301,25461
20070302,25378
20070305,24644
20070306,25143
20070307,25264
20070308,25960
20070309,26140
20070312,26511
20070313,26455
20070314,25799
20070315,26203
20070316,26045
20070319,26415
20070320,26633
20070322,27083
20070323,27383
20070326,27473
20070327,27403
20070328,27402
20070329,27508
20070330,27692
20070402,27344
20070403,27743
20070404,28216
20070405,28171
20070406,28209
20070409,28608
20070410,27836
20070411,27976
20070412,27823
20070413,27566
20070416,27935
20070417,27882
20070418,28101
20070419,27772
20070420,27876
20070423,27878
20070424,27881
20070425,27712
20070426,28034
20070427,28144
20070501,28247
20070502,28492
20070507,28966
20070508,28894
20070509,29089
20070510,28844
20070511,28728
20070514,29024
20070515,28759
20070516,28837
20070517,28778
20070518,28601
20070521,28901
20070522,29193
20070523,29238
20070524,29248
20070525,28945
20070528,29141
20070529,29346
20070530,29330
20070531,29757
20070601,29905
20070604,30046
20070605,30107
20070606,30086
20070607,30079
20070608,29711
20070611,29801
20070612,29739
20070613,29649
20070614,29838
20070615,30122
20070618,30379
20070619,30291
20070620,30420
20070621,30565
20070622,30509
20070625,30431
20070626,30424
20070627,29987
20070628,30219
20070629,30767
20070702,30950
20070703,31056
20070704,31043
20070705,31182
20070706,31032
20070709,31335
20070710,30510
20070711,30257
20070712,30342
20070713,30697
20070717,30684
20070718,30299
20070719,30509
20070720,30679
20070723,30348
20070724,30488
20070725,30316
20070726,30028
20070727,29448
20070730,29762
20070731,29919
20070801,29444
20070802,29555
20070803,29585
20070806,29709
20070807,29651
20070808,29618
20070809,29882
20070810,29116
20070813,29306
20070814,29558
20070815,28892
20070816,28431
20070817,26925
20070820,27750
20070821,28315
20070822,28282
20070823,29135
20070824,29135
20070827,29209
20070828,29240
20070829,28853
20070830,29149
20070831,29965
20070903,29968
20070904,29904
20070905,29403
20070906,29471
20070907,29380
20070910,28866
20070911,28962
20070912,29017
20070913,28922
20070914,29215
20070918,28698
20070919,29613
20070920,29611
20070921,29419
20070925,29841
20070926,29960
20070927,30462
20070928,30586
20071001,30618
20071002,30947
20071003,31304
20071004,31117
20071005,31154
20071009,31197
20071010,30673
20071011,31061
20071012,30802
20071015,30723
20071016,30199
20071017,29761
20071018,30057
20071019,29555
20071022,29084
20071023,29209
20071024,29115
20071025,28744
20071026,29193
20071029,29677
20071030,29603
20071031,29659
20071101,29907
20071102,29320
20071105,28911
20071106,28910
20071107,28759
20071108,28127
20071109,27779
20071112,27088
20071113,27029
20071114,27707
20071115,27804
20071116,27286
20071119,26973
20071120,27218
20071121,26684
20071122,26766
20071126,27181
20071127,27325
20071128,27218
20071129,27860
20071130,28183
20071203,28149
20071204,27815
20071205,27920
20071206,28236
20071207,28387
20071210,28285
20071211,28463
20071212,28295
20071213,27664
20071214,27493
20071217,26963
20071218,26906
20071219,26653
20071220,26617
20071221,26864
20071225,27238
20071226,27531
20071227,27360
20071228,27006
20080104,25904
20080107,25578
20080108,25780
20080109,26196
20080110,25749
20080111,25355
20080115,24821
20080116,23937
20080117,24393
20080118,24605
20080121,23729
20080122,22412
20080123,22872
20080124,23355
20080125,24323
20080128,23429
20080129,24094
20080130,23934
20080131,24372
20080201,24181
20080204,24655
20080205,24589
20080206,23562
20080207,23760
20080208,23439
20080212,23520
20080213,23550
20080214,24346
20080215,24492
20080218,24519
20080219,24721
20080220,23993
20080221,24528
20080222,24380
20080225,24899
20080226,24664
20080227,24954
20080228,24822
20080229,24376
20080303,23574
20080304,23456
20080305,23490
20080306,23914
20080307,23202
20080310,22696
20080311,22916
20080312,23222
20080313,22601
20080314,22164
20080317,21375
20080318,21498
20080319,22085
20080321,22362
20080324,22453
20080325,22793
20080326,22912
20080327,22788
20080328,23116
20080331,22527
20080401,22791
20080402,23569
20080403,23777
20080404,23550
20080407,23829
20080408,23545
20080409,23170
20080410,22712
20080411,23220
20080414,22668
20080415,22863
20080416,23083
20080417,23509
20080418,23657
20080421,24119
20080422,23802
20080423,23925
20080424,23804
20080425,24379
20080428,24655
20080430,24564
20080501,24353
20080502,24860
20080507,25252
20080508,24868
20080509,24322
20080512,24305
20080513,24485
20080514,24753
20080515,25149
20080516,25205
20080519,25312
20080520,25223
20080521,24702
20080522,24883
20080523,24771
20080526,24221
20080527,24634
20080528,24278
20080529,24840
20080530,25328
20080602,25448
20080603,25069
20080604,25380
20080605,25345
20080606,25371
20080609,24751
20080610,24583
20080611,24692
20080612,24240
20080613,24311
20080616,24770
20080617,24796
20080618,24959
20080619,24358
20080620,24085
20080623,24002
20080624,23967
20080625,23973
20080626,23922
20080627,23598
20080630,23679
20080701,23781
20080702,23421
20080703,23330
20080704,23254
20080707,23423
20080708,22943
20080709,22983
20080710,23013
20080711,22902
20080714,22697
20080715,22259
20080716,22138
20080717,22158
20080718,21952
20080722,22582
20080723,22781
20080724,23230
20080725,22746
20080728,22806
20080729,22477
20080730,22843
20080731,22843
20080801,22359
20080804,21919
20080805,21881
20080806,22400
20080807,22141
20080808,22144
20080811,22458
20080812,22255
20080813,21892
20080814,21799
20080815,21912
20080818,22135
20080819,21637
20080820,21589
20080821,21465
20080822,21322
20080825,21648
20080826,21482
20080827,21353
20080828,21278
20080829,21840
20080901,21382
20080902,21007
20080903,21186
20080904,20849
20080905,20380
20080908,21035
20080909,20555
20080910,20512
20080911,20069
20080912,20275
20080916,19298
20080917,19392
20080918,19000
20080919,19662
20080922,19985
20080924,19955
20080925,19856
20080926,19736
20080929,19330
20080930,18722
20081001,18894
20081002,18497
20081003,18018
20081006,17188
20081007,16709
20081008,15342
20081009,15365
20081010,14055
20081014,15923
20081015,15952
20081016,14481
20081017,14995
20081020,15564
20081021,16055
20081022,15032
20081023,14808
20081024,13821
20081027,12946
20081028,13719
20081029,14534
20081030,15760
20081031,15187
20081104,15935
20081105,16790
20081106,15866
20081107,15235
20081110,15936
20081111,15496
20081112,15255
20081113,14687
20081114,14869
20081117,14928
20081118,14684
20081119,14588
20081120,13836
20081121,14238
20081125,14664
20081126,14439
20081127,14671
20081128,14770
20081201,14697
20081202,13951
20081203,14157
20081204,14038
20081205,13957
20081208,14431
20081209,14508
20081210,14799
20081211,15054
20081212,14413
20081215,14969
20081216,14576
20081217,14723
20081218,14714
20081219,14574
20081222,14740
20081224,14388
20081225,14586
20081226,14727
20081229,14798
20081230,14901
20090105,15131
20090106,15095
20090107,15279
20090108,14818
20090109,14726
20090113,14034
20090114,14097
20090115,13728
20090116,14094
20090119,14083
20090120,13905
20090121,13591
20090122,13724
20090123,13375
20090126,13308
20090127,13896
20090128,13905
20090129,14114
20090130,13696
20090202,13527
20090203,13453
20090204,13789
20090205,13676
20090206,13780
20090209,13567
20090210,13486
20090212,13190
20090213,13264
20090216,13334
20090217,13114
20090218,13021
20090219,13009
20090220,12794
20090223,12680
20090224,12560
20090225,12797
20090226,12762
20090227,12979
20090302,12624
20090303,12482
20090304,12606
20090305,12803
20090306,12440
20090309,12275
20090310,12093
20090311,12401
20090312,12055
20090313,12470
20090316,12748
20090317,13025
20090318,13057
20090319,13070
20090323,13522
20090324,13878
20090325,14023
20090326,14304
20090327,14255
20090330,13669
20090331,13461
20090401,13755
20090402,14245
20090403,14242
20090406,14250
20090407,14251
20090408,13956
20090409,14351
20090410,14256
20090413,14328
20090414,14244
20090415,14168
20090416,14141
20090417,14326
20090420,14411
20090421,14052
20090422,14021
20090423,14161
20090424,13961
20090427,13979
20090428,13636
20090430,14049
20090501,14205
20090507,14795
20090508,14909
20090511,15012
20090512,14755
20090513,14853
20090514,14527
20090515,14812
20090518,14543
20090519,14866
20090520,15005
20090521,14944
20090522,14856
20090525,15011
20090526,15016
20090527,15136
20090528,15122
20090529,15182
20090601,15420
20090602,15386
20090603,15352
20090604,15263
20090605,15321
20090608,15439
20090609,15315
20090610,15620
20090611,15620
20090612,15767
20090615,15729
20090616,15248
20090617,15361
20090618,15198
20090619,15326
20090622,15353
20090623,15044
20090624,15095
20090625,15327
20090626,15440
20090629,15266
20090630,15509
20090701,15470
20090702,15368
20090703,15292
20090706,15207
20090707,15209
20090708,14908
20090709,14670
20090710,14704
20090713,14406
20090714,14563
20090715,14524
20090716,14607
20090717,14710
20090721,15023
20090722,15091
20090723,15101
20090724,15229
20090727,15343
20090728,15349
20090729,15321
20090730,15277
20090731,15474
20090803,15467
20090804,15549
20090805,15444
20090806,15515
20090807,15532
20090810,15706
20090811,15811
20090812,15611
20090813,15737
20090814,15797
20090817,15469
20090818,15489
20090819,15322
20090820,15570
20090821,15415
20090824,15771
20090825,15708
20090826,15858
20090827,15676
20090828,15730
20090831,15676
20090901,15710
20090902,15422
20090903,15339
20090904,15247
20090907,15364
20090908,15394
20090909,15319
20090910,15587
20090911,15461
20090914,15260
20090915,15224
20090916,15206
20090917,15325
20090918,15302
20090924,15495
20090925,15183
20090928,14946
20090929,14946
20090930,15059
20091001,14883
20091002,14543
20091005,14427
20091006,14412
20091007,14525
20091008,14515
20091009,14628
20091013,14507
20091014,14445
20091015,14606
20091016,14571
20091019,14560
20091020,14650
20091021,14619
20091022,14521
20091023,14437
20091026,14512
20091027,14278
20091028,14176
20091029,14052
20091030,14187
20091102,14068
20091104,14103
20091105,13993
20091106,13969
20091109,13915
20091110,13905
20091111,13935
20091112,13806
20091113,13799
20091116,13741
20091117,13675
20091118,13581
20091119,13412
20091120,13439
20091124,13309
20091125,13354
20091126,13278
20091127,13048
20091130,13424
20091201,13669
20091202,13642
20091203,14050
20091204,14035
20091207,14125
20091208,14099
20091209,13936
20091210,13773
20091211,13948
20091214,13901
20091215,13871
20091216,14047
20091217,14021
20091218,13985
20091221,13960
20091222,14066
20091224,14205
20091225,14117
20091228,14243
20091229,14238
20091230,14103
20100104,14219
20100105,14287
20100106,14434
20100107,14429
20100108,14499
20100112,14556
20100113,14441
20100114,14552
20100115,14664
20100118,14564
20100119,14451
20100120,14419
20100121,14515
20100122,14300
20100125,14208
20100126,14007
20100127,13924
20100128,13946
20100129,13749
20100201,13748
20100202,13920
20100203,14014
20100204,14032
20100205,13738
20100208,13628
20100209,13533
20100210,13518
20100212,13672
20100215,13560
20100216,13570
20100217,13814
20100218,13824
20100219,13618
20100222,13903
20100223,13849
20100224,13688
20100225,13600
20100226,13615
20100301,13665
20100302,13713
20100303,13733
20100304,13635
20100305,13794
20100308,14005
20100309,13944
20100310,13885
20100311,14012
20100312,14099
20100315,14105
20100316,14087
20100317,14200
20100318,14121
20100319,14209
20100323,14160
20100324,14209
20100325,14217
20100326,14402
20100329,14469
20100330,14645
20100331,14639
20100401,14755
20100402,14788
20100405,14889
20100406,14855
20100407,14902
20100408,14779
20100409,14778
20100412,14756
20100413,14712
20100414,14741
20100415,14847
20100416,14706
20100419,14451
20100420,14489
20100421,14664
20100422,14561
20100423,14586
20100426,14806
20100427,14757
20100428,14461
20100430,14612
20100506,14217
20100507,13884
20100510,14066
20100511,13955
20100512,13945
20100513,14109
20100514,13966
20100517,13778
20100518,13689
20100519,13614
20100520,13489
20100521,13164
20100524,13139
20100525,12882
20100526,12828
20100527,12924
20100528,13030
20100531,13081
20100601,13110
20100602,12963
20100603,13210
20100604,13180
20100607,12787
20100608,12775
20100609,12663
20100610,12752
20100611,12881
20100614,13018
20100615,12988
20100616,13189
20100617,13139
20100618,13104
20100621,13336
20100622,13225
20100623,13023
20100624,13019
20100625,12876
20100628,12787
20100629,12648
20100630,12515
20100701,12351
20100702,12388
20100705,12487
20100706,12621
20100707,12577
20100708,12819
20100709,12806
20100712,12664
20100713,12641
20100714,12825
20100715,12635
20100716,12424
20100720,12314
20100721,12294
20100722,12210
20100723,12391
20100726,12459
20100727,12463
20100728,12728
20100729,12640
20100730,12470
20100802,12493
20100803,12631
20100804,12460
20100805,12608
20100806,12656
20100809,12614
20100810,12568
20100811,12285
20100812,12192
20100813,12261
20100816,12233
20100817,12209
20100818,12328
20100819,12433
20100820,12224
20100823,12163
20100824,12072
20100825,11915
20100826,11950
20100827,12050
20100830,12167
20100831,11814
20100901,11915
20100902,12030
20100903,12061
20100906,12265
20100907,12201
20100908,12000
20100909,12093
20100910,12200
20100913,12188
20100914,12162
20100915,12319
20100916,12215
20100917,12323
20100921,12277
20100922,12267
20100924,12116
20100927,12257
20100928,12241
20100929,12301
20100930,12049
20101001,12056
20101004,11939
20101005,12061
20101006,12209
20101007,12232
20101008,12143
20101012,11806
20101013,11780
20101014,11925
20101015,11775
20101018,11821
20101019,11821
20101020,11680
20101021,11646
20101022,11692
20101025,11633
20101026,11580
20101027,11555
20101028,11508
20101029,11486
20101101,11388
20101102,11366
20101104,11518
20101105,11738
20101108,11789
20101109,11761
20101110,11933
20101111,11979
20101112,11847
20101115,11884
20101116,11817
20101117,11831
20101118,12069
20101119,12070
20101122,12109
20101124,11986
20101125,11988
20101126,11958
20101129,12054
20101130,11887
20101201,11946
20101202,12083
20101203,12110
20101206,12134
20101207,12102
20101208,12217
20101209,12300
20101210,12286
20101213,12394
20101214,12443
20101215,12445
20101216,12466
20101217,12455
20101220,12396
20101221,12495
20101222,12479
20101224,12438
20101227,12482
20101228,12462
20101229,12540
20101230,12429
20110104,12574
20110105,12549
20110106,12707
20110107,12703
20110111,12661
20110112,12677
20110113,12799
20110114,12684
20110117,12666
20110118,12659
20110119,12694
20110120,12558
20110121,12386
20110124,12449
20110125,12570
20110126,12478
20110127,12541
20110128,12392
20110131,12280
20110201,12320
20110202,12498
20110203,12460
20110204,12551
20110207,12595
20110208,12637
20110209,12639
20110210,12681
20110214,12797
20110215,12817
20110216,12858
20110217,12961
20110218,12960
20110221,12959
20110222,12753
20110223,12630
20110224,12496
20110225,12575
20110228,12645
20110301,12790
20110302,12561
20110303,12615
20110304,12652
20110307,12494
20110308,12469
20110309,12546
20110310,12407
20110311,12211
20110314,11349
20110315,10302
20110316,10887
20110317,10777
20110318,10984
20110322,11439
20110323,11384
20110324,11289
20110325,11332
20110328,11359
20110329,11387
20110330,11552
20110331,11586
20110401,11511
20110404,11469
20110405,11327
20110406,11259
20110407,11260
20110408,11386
20110411,11257
20110412,11120
20110413,11181
20110414,11193
20110415,11113
20110418,11049
20110419,10935
20110420,11019
20110421,11058
20110422,11026
20110425,11004
20110426,10912
20110427,11010
20110428,11150
20110502,11298
20110506,11193
20110509,11156
20110510,11178
20110511,11155
20110512,11044
20110513,10927
20110516,10794
20110517,10793
20110518,10902
20110519,10833
20110520,10777
20110523,10668
20110524,10672
20110525,10677
20110526,10781
20110527,10742
20110530,10707
20110531,10880
20110601,10886
20110602,10735
20110603,10621
20110606,10523
20110607,10564
20110608,10567
20110609,10532
20110610,10564
20110613,10509
20110614,10624
20110615,10620
20110616,10476
20110617,10374
20110620,10393
20110621,10504
20110622,10639
20110623,10591
20110624,10657
20110627,10552
20110628,10629
20110629,10770
20110630,10816
20110701,10820
20110704,10935
20110705,10967
20110706,11051
20110707,11011
20110708,11050
20110711,10919
20110712,10767
20110713,10771
20110714,10724
20110715,10731
20110719,10661
20110720,10718
20110721,10720
20110722,10819
20110725,10729
20110726,10783
20110727,10701
20110728,10550
20110729,10442
20110801,10569
20110802,10495
20110803,10309
20110804,10303
20110805,10020
20110808,9820
20110809,9657
20110810,9722
20110811,9678
20110812,9672
20110815,9763
20110816,9754
20110817,9739
20110818,9642
20110819,9441
20110822,9354
20110823,9438
20110824,9348
20110825,9445
20110826,9471
20110829,9487
20110830,9564
20110831,9628
20110901,9728
20110902,9630
20110905,9481
20110906,9323
20110907,9459
20110908,9507
20110909,9498
20110912,9330
20110913,9434
20110914,9327
20110915,9457
20110916,9629
20110920,9482
20110921,9517
20110922,9385
20110926,9217
20110927,9436
20110928,9571
20110929,9662
20110930,9656
20111003,9489
20111004,9339
20111005,9231
20111006,9370
20111007,9399
20111011,9450
20111012,9458
20111013,9463
20111014,9351
20111017,9497
20111018,9367
20111019,9357
20111020,9287
20111021,9257
20111024,9362
20111025,9253
20111026,9242
20111027,9441
20111028,9525
20111031,9438
20111101,9321
20111102,9149
20111104,9309
20111107,9274
20111108,9137
20111109,9274
20111110,9035
20111111,9021
20111114,9088
20111115,9030
20111116,8947
20111117,9009
20111118,8916
20111121,8882
20111122,8894
20111124,8751
20111125,8762
20111128,8847
20111129,9024
20111130,9003
20111201,9143
20111202,9187
20111205,9219
20111206,9100
20111207,9235
20111208,9174
20111209,9102
20111212,9195
20111213,9130
20111214,9091
20111215,8961
20111216,8934
20111219,8855
20111220,8860
20111221,8955
20111222,8927
20111226,8975
20111227,8953
20111228,8933
20111229,8947
20111230,9023
20120104,9165
20120105,9084
20120106,8997
20120110,8971
20120111,9005
20120112,8926
20120113,8997
20120116,8871
20120117,8937
20120118,8958
20120119,9020
20120120,9159
20120123,9147
20120124,9152
20120125,9259
20120126,9217
20120127,9171
20120130,9142
20120131,9106